| time (UTC) | temp F | wind direction | speed knots | gust knots | rain 1hr in | rain 24hr in | rain mn in | humidity % | barometer mb |
| 20260507015808 | 75 | 340 | 0.0 | 0.9 | 0.00 | 0.00 | 0.00 | 56 | 1016.7 |
| 20260507014811 | 75 | 341 | 0.9 | 2.6 | 0.00 | 0.00 | 0.00 | 55 | 1016.8 |
| 20260507013811 | 76 | 295 | 1.7 | 3.5 | 0.00 | 0.00 | 0.00 | 55 | 1016.8 |
| 20260507012809 | 76 | 303 | 0.9 | 3.5 | 0.00 | 0.00 | 0.00 | 55 | 1016.8 |
| 20260507011813 | 76 | 260 | 0.0 | 3.5 | 0.00 | 0.00 | 0.00 | 54 | 1016.8 |
| 20260507010815 | 76 | 339 | 2.6 | 4.3 | 0.00 | 0.00 | 0.00 | 55 | 1016.8 |
| 20260507005841 | 76 | 253 | 1.7 | 4.3 | 0.00 | 0.00 | 0.00 | 54 | 1016.8 |
| 20260507004801 | 76 | 8 | 0.9 | 3.5 | 0.00 | 0.00 | 0.00 | 56 | 1016.9 |
| 20260507003803 | 75 | 265 | 1.7 | 7.8 | 0.00 | 0.00 | 0.00 | 54 | 1017.0 |
| 20260507002819 | 75 | 302 | 0.0 | 5.2 | 0.00 | 0.00 | 0.00 | 56 | 1016.9 |
| 20260507001804 | 75 | 357 | 2.6 | 8.7 | 0.00 | 0.00 | 0.00 | 57 | 1016.9 |
| 20260507000807 | 75 | 205 | 2.6 | 7.0 | 0.00 | 0.00 | 0.00 | 56 | 1017.1 |
| 20260506235802 | 76 | 341 | 3.5 | 7.8 | 0.00 | 0.00 | 0.00 | 55 | 1017.1 |
| 20260506234804 | 76 | 260 | 2.6 | 7.0 | 0.00 | 0.00 | 0.00 | 55 | 1017.1 |
| 20260506233806 | 75 | 290 | 4.3 | 6.1 | 0.00 | 0.00 | 0.00 | 56 | 1017.2 |
| 20260506232804 | 75 | 316 | 2.6 | 8.7 | 0.00 | 0.00 | 0.00 | 54 | 1017.3 |
| 20260506231805 | 76 | 336 | 2.6 | 7.0 | 0.00 | 0.00 | 0.00 | 56 | 1017.4 |
| 20260506230825 | 74 | 326 | 3.5 | 8.7 | 0.00 | 0.00 | 0.00 | 56 | 1017.6 |
| 20260506225819 | 76 | 255 | 3.5 | 9.6 | 0.00 | 0.00 | 0.00 | 55 | 1017.8 |
| 20260506224800 | 75 | 134 | 0.9 | 7.0 | 0.00 | 0.00 | 0.00 | 56 | 1017.9 |
| 20260506223802 | 75 | 75 | 4.3 | 9.6 | 0.00 | 0.00 | 0.00 | 55 | 1018.0 |
| 20260506222818 | 74 | 41 | 2.6 | 7.0 | 0.00 | 0.00 | 0.00 | 55 | 1018.1 |
| 20260506221804 | 74 | 107 | 0.9 | 10.4 | 0.00 | 0.00 | 0.00 | 56 | 1018.3 |
| 20260506220805 | 73 | 260 | 0.9 | 8.7 | 0.00 | 0.00 | 0.00 | 56 | 1018.5 |
| 20260506215802 | 74 | 8 | 5.2 | 9.6 | 0.00 | 0.00 | 0.00 | 57 | 1018.5 |
| 20260506214806 | 73 | 327 | 3.5 | 8.7 | 0.00 | 0.00 | 0.00 | 57 | 1018.7 |
| 20260506213811 | 73 | 314 | 2.6 | 8.7 | 0.00 | 0.00 | 0.00 | 59 | 1018.7 |
| 20260506212812 | 73 | 270 | 2.6 | 8.7 | 0.00 | 0.00 | 0.00 | 58 | 1018.9 |
| 20260506211812 | 73 | 22 | 0.9 | 8.7 | 0.00 | 0.00 | 0.00 | 56 | 1018.9 |
| 20260506210815 | 72 | 291 | 2.6 | 7.0 | 0.00 | 0.00 | 0.00 | 60 | 1019.1 |
| 20260506205817 | 72 | 251 | 3.5 | 7.0 | 0.00 | 0.00 | 0.00 | 57 | 1019.3 |
| 20260506204818 | 72 | 51 | 1.7 | 7.0 | 0.00 | 0.00 | 0.00 | 57 | 1019.3 |
| 20260506203801 | 73 | 344 | 1.7 | 7.8 | 0.00 | 0.00 | 0.00 | 60 | 1019.6 |
| 20260506202808 | 71 | 193 | 0.9 | 5.2 | 0.00 | 0.00 | 0.00 | 58 | 1019.6 |
| 20260506201808 | 71 | 68 | 0.9 | 3.5 | 0.00 | 0.00 | 0.00 | 60 | 1019.7 |
| 20260506200812 | 70 | 325 | 0.9 | 4.3 | 0.00 | 0.00 | 0.00 | 62 | 1019.8 |
| 20260506195814 | 70 | 230 | 2.6 | 4.3 | 0.00 | 0.00 | 0.00 | 61 | 1019.8 |
| 20260506194817 | 70 | 21 | 2.6 | 7.8 | 0.00 | 0.00 | 0.00 | 61 | 1019.8 |
| 20260506193818 | 70 | 353 | 2.6 | 5.2 | 0.00 | 0.00 | 0.00 | 61 | 1020.1 |
| 20260506192820 | 69 | 265 | 2.6 | 4.3 | 0.00 | 0.00 | 0.00 | 62 | 1020.3 |
| 20260506191803 | 69 | 11 | 0.9 | 5.2 | 0.00 | 0.00 | 0.00 | 65 | 1020.3 |
| 20260506190803 | 69 | 239 | 2.6 | 6.1 | 0.00 | 0.00 | 0.00 | 63 | 1020.4 |
| 20260506185805 | 69 | 347 | 2.6 | 5.2 | 0.00 | 0.00 | 0.00 | 65 | 1020.4 |
| 20260506184810 | 69 | 299 | 1.7 | 5.2 | 0.00 | 0.00 | 0.00 | 65 | 1020.6 |
| 20260506183806 | 68 | 146 | 0.9 | 4.3 | 0.00 | 0.00 | 0.00 | 64 | 1020.6 |
| 20260506182807 | 69 | 321 | 0.9 | 5.2 | 0.00 | 0.00 | 0.00 | 65 | 1020.7 |
| 20260506181806 | 67 | 109 | 0.9 | 2.6 | 0.00 | 0.00 | 0.00 | 68 | 1020.7 |
| 20260506180801 | 66 | 154 | 1.7 | 3.5 | 0.00 | 0.00 | 0.00 | 68 | 1020.7 |
| 20260506175826 | 66 | 187 | 0.9 | 4.3 | 0.00 | 0.00 | 0.00 | 68 | 1020.7 |
| 20260506174804 | 66 | 246 | 0.9 | 4.3 | 0.00 | 0.00 | 0.00 | 71 | 1020.6 |
| 20260506173818 | 65 | 296 | 0.9 | 2.6 | 0.00 | 0.00 | 0.00 | 72 | 1020.6 |
| 20260506172803 | 64 | 253 | 1.7 | 2.6 | 0.00 | 0.00 | 0.00 | 73 | 1020.6 |
| 20260506171825 | 64 | 184 | 0.0 | 2.6 | 0.00 | 0.00 | 0.00 | 72 | 1020.7 |
| 20260506170802 | 63 | 124 | 0.9 | 2.6 | 0.00 | 0.00 | 0.00 | 74 | 1020.7 |
| 20260506165803 | 63 | 282 | 1.7 | 2.6 | 0.00 | 0.00 | 0.00 | 76 | 1020.6 |
| 20260506164825 | 62 | 178 | 0.9 | 3.5 | 0.00 | 0.00 | 0.00 | 76 | 1020.6 |
| 20260506163804 | 62 | 353 | 0.9 | 2.6 | 0.00 | 0.00 | 0.00 | 76 | 1020.6 |
| 20260506162826 | 61 | 195 | 0.9 | 3.5 | 0.00 | 0.00 | 0.00 | 76 | 1020.6 |
| 20260506161810 | 61 | 176 | 1.7 | 2.6 | 0.00 | 0.00 | 0.00 | 76 | 1020.6 |
| 20260506160805 | 61 | 172 | 1.7 | 3.5 | 0.00 | 0.00 | 0.00 | 77 | 1020.6 |
| 20260506155807 | 60 | 193 | 2.6 | 3.5 | 0.00 | 0.00 | 0.00 | 78 | 1020.5 |
| 20260506154808 | 60 | 196 | 1.7 | 4.3 | 0.00 | 0.00 | 0.00 | 78 | 1020.6 |
| 20260506153824 | 60 | 176 | 1.7 | 3.5 | 0.00 | 0.00 | 0.00 | 79 | 1020.5 |
| 20260506152806 | 59 | 136 | 0.9 | 3.5 | 0.00 | 0.00 | 0.00 | 79 | 1020.5 |
| 20260506151807 | 59 | 118 | 2.6 | 4.3 | 0.00 | 0.00 | 0.00 | 80 | 1020.4 |
| 20260506150811 | 59 | 181 | 0.9 | 2.6 | 0.00 | 0.00 | 0.00 | 81 | 1020.5 |
| 20260506145811 | 59 | 151 | 1.7 | 4.3 | 0.00 | 0.00 | 0.00 | 81 | 1020.4 |
| 20260506144816 | 58 | 199 | 1.7 | 3.5 | 0.00 | 0.00 | 0.00 | 81 | 1020.4 |
| 20260506143819 | 58 | 199 | 1.7 | 5.2 | 0.00 | 0.00 | 0.00 | 82 | 1020.4 |
| 20260506142818 | 58 | 178 | 1.7 | 3.5 | 0.00 | 0.00 | 0.00 | 82 | 1020.5 |
| 20260506141801 | 58 | 189 | 0.9 | 3.5 | 0.00 | 0.00 | 0.00 | 82 | 1020.4 |
| 20260506140807 | 58 | 201 | 0.0 | 2.6 | 0.00 | 0.00 | 0.00 | 82 | 1020.3 |
| 20260506135806 | 58 | 153 | 0.0 | 2.6 | 0.00 | 0.00 | 0.00 | 82 | 1020.1 |
| 20260506134808 | 58 | 164 | 0.9 | 3.5 | 0.00 | 0.00 | 0.00 | 82 | 1020.0 |
| 20260506133812 | 58 | 182 | 2.6 | 3.5 | 0.00 | 0.00 | 0.00 | 82 | 1019.8 |
| 20260506132815 | 58 | 135 | 0.0 | 5.2 | 0.00 | 0.00 | 0.00 | 82 | 1019.8 |
| 20260506131815 | 58 | 128 | 1.7 | 3.5 | 0.00 | 0.00 | 0.00 | 82 | 1019.8 |
| 20260506130800 | 57 | 163 | 0.9 | 3.5 | 0.00 | 0.00 | 0.00 | 82 | 1019.8 |
| 20260506125801 | 57 | 137 | 1.7 | 4.3 | 0.00 | 0.00 | 0.00 | 82 | 1019.8 |
| 20260506124817 | 57 | 124 | 0.9 | 3.5 | 0.00 | 0.00 | 0.00 | 82 | 1019.8 |
| 20260506123804 | 57 | 141 | 0.9 | 5.2 | 0.00 | 0.00 | 0.00 | 82 | 1019.7 |
| 20260506122806 | 58 | 168 | 0.0 | 3.5 | 0.00 | 0.00 | 0.00 | 83 | 1019.6 |
| 20260506121807 | 58 | 140 | 0.9 | 3.5 | 0.00 | 0.00 | 0.00 | 83 | 1019.5 |
| 20260506120811 | 58 | 155 | 2.6 | 6.1 | 0.00 | 0.00 | 0.00 | 82 | 1019.5 |
| 20260506115815 | 58 | 125 | 0.9 | 5.2 | 0.00 | 0.00 | 0.00 | 82 | 1019.3 |
| 20260506114819 | 58 | 123 | 1.7 | 3.5 | 0.00 | 0.00 | 0.00 | 82 | 1019.3 |
| 20260506113840 | 58 | 141 | 1.7 | 3.5 | 0.00 | 0.00 | 0.00 | 82 | 1019.4 |
| 20260506112803 | 58 | 143 | 0.0 | 3.5 | 0.00 | 0.00 | 0.00 | 82 | 1019.4 |
| 20260506111804 | 58 | 114 | 0.0 | 3.5 | 0.00 | 0.00 | 0.00 | 82 | 1019.3 |
| 20260506110803 | 58 | 128 | 2.6 | 4.3 | 0.00 | 0.00 | 0.00 | 82 | 1019.2 |
| 20260506105808 | 58 | 132 | 0.9 | 2.6 | 0.00 | 0.00 | 0.00 | 82 | 1019.0 |
| 20260506104832 | 58 | 139 | 0.9 | 3.5 | 0.00 | 0.00 | 0.00 | 82 | 1019.0 |
| 20260506103809 | 58 | 114 | 1.7 | 3.5 | 0.00 | 0.00 | 0.00 | 82 | 1018.9 |
| 20260506102813 | 58 | 95 | 0.9 | 4.3 | 0.00 | 0.00 | 0.00 | 81 | 1018.9 |
| 20260506101818 | 58 | 144 | 2.6 | 5.2 | 0.00 | 0.00 | 0.00 | 81 | 1018.8 |
| 20260506100800 | 58 | 133 | 3.5 | 4.3 | 0.00 | 0.00 | 0.00 | 81 | 1018.8 |
| 20260506095803 | 58 | 124 | 1.7 | 6.1 | 0.00 | 0.00 | 0.00 | 81 | 1018.8 |
| 20260506094809 | 58 | 124 | 1.7 | 4.3 | 0.00 | 0.00 | 0.00 | 81 | 1018.7 |
| 20260506093807 | 58 | 131 | 1.7 | 3.5 | 0.00 | 0.00 | 0.00 | 80 | 1018.7 |
| 20260506092809 | 59 | 112 | 1.7 | 3.5 | 0.00 | 0.00 | 0.00 | 80 | 1018.7 |
| 20260506091814 | 59 | 143 | 0.9 | 4.3 | 0.00 | 0.00 | 0.00 | 80 | 1018.7 |
| 20260506090800 | 59 | 116 | 2.6 | 6.1 | 0.00 | 0.00 | 0.00 | 80 | 1018.7 |
| 20260506085817 | 59 | 167 | 2.6 | 5.2 | 0.00 | 0.00 | 0.00 | 80 | 1018.6 |
| 20260506084822 | 59 | 143 | 2.6 | 4.3 | 0.00 | 0.00 | 0.00 | 80 | 1018.7 |
| 20260506083803 | 59 | 114 | 2.6 | 3.5 | 0.00 | 0.00 | 0.00 | 80 | 1018.7 |
| 20260506082822 | 59 | 139 | 0.0 | 2.6 | 0.00 | 0.00 | 0.00 | 80 | 1018.8 |
| 20260506081804 | 59 | 140 | 0.9 | 3.5 | 0.00 | 0.00 | 0.00 | 80 | 1018.8 |
| 20260506080807 | 59 | 158 | 0.0 | 2.6 | 0.00 | 0.00 | 0.00 | 80 | 1018.7 |
| 20260506072808 | 60 | 182 | 0.0 | 1.7 | 0.00 | 0.01 | 0.00 | 80 | 1018.3 |
| 20260506071814 | 60 | 180 | 1.7 | 3.5 | 0.00 | 0.01 | 0.00 | 80 | 1018.3 |
| 20260506070835 | 60 | 186 | 0.9 | 2.6 | 0.00 | 0.01 | 0.00 | 79 | 1018.2 |
| 20260506061816 | 60 | 180 | 0.0 | 2.6 | 0.00 | 0.05 | 0.01 | 79 | 1017.8 |
| 20260506060819 | 60 | 198 | 0.9 | 4.3 | 0.00 | 0.05 | 0.01 | 78 | 1017.7 |
| 20260506050818 | 61 | 184 | 2.6 | 6.1 | 0.00 | 0.15 | 0.01 | 77 | 1017.3 |
| 20260506044802 | 62 | 182 | 1.7 | 3.5 | 0.00 | 0.26 | 0.01 | 77 | 1017.0 |
| 20260506043821 | 62 | 195 | 1.7 | 4.3 | 0.00 | 0.26 | 0.01 | 78 | 1017.0 |
| 20260506042811 | 62 | 180 | 0.0 | 3.5 | 0.00 | 0.26 | 0.01 | 77 | 1016.9 |
| 20260506041829 | 62 | 157 | 0.0 | 3.5 | 0.00 | 0.26 | 0.01 | 77 | 1016.6 |
| 20260506040803 | 62 | 161 | 2.6 | 6.1 | 0.00 | 0.26 | 0.01 | 77 | 1016.5 |
| 20260506035837 | 63 | 132 | 2.6 | 6.1 | 0.00 | 0.49 | 0.01 | 76 | 1016.3 |
| 20260506034814 | 63 | 126 | 2.6 | 4.3 | 0.00 | 0.49 | 0.01 | 76 | 1016.4 |
| 20260506033828 | 63 | 139 | 2.6 | 4.3 | 0.00 | 0.49 | 0.01 | 75 | 1016.4 |
| 20260506032805 | 63 | 141 | 1.7 | 5.2 | 0.00 | 0.49 | 0.01 | 75 | 1016.3 |
| 20260506031804 | 63 | 110 | 1.7 | 5.2 | 0.00 | 0.49 | 0.01 | 74 | 1016.2 |
| 20260506030819 | 63 | 168 | 0.0 | 2.6 | 0.00 | 0.49 | 0.01 | 73 | 1015.9 |
| 20260506025814 | 63 | 136 | 2.6 | 6.1 | 0.00 | 0.58 | 0.01 | 73 | 1015.8 |
| 20260506024809 | 63 | 172 | 2.6 | 7.0 | 0.00 | 0.58 | 0.01 | 72 | 1015.7 |
| 20260506023842 | 63 | 155 | 1.7 | 7.0 | 0.00 | 0.58 | 0.01 | 72 | 1015.6 |
| 20260506022818 | 64 | 184 | 3.5 | 8.7 | 0.00 | 0.58 | 0.01 | 72 | 1015.4 |
| 20260506021818 | 64 | 165 | 2.6 | 7.0 | 0.00 | 0.58 | 0.01 | 72 | 1015.2 |
| 20260506020811 | 64 | 120 | 4.3 | 9.6 | 0.00 | 0.58 | 0.01 | 71 | 1015.2 |